This demonstration page uses our WeatherBlox Daily Observations layout. Learn more.

Left ArrowRight Arrow

Hourly Observations for January 2, 2018

Temp ( °F °C ) Dew Point ( °F °C ) Humidity (%) Winds ( mph kmh ) Pressure ( in mb ) Visibility ( mi km ) Precip ( " mm )
12:53 am 00:53 Clear -2 -18.9 -8 -22.2 75 75 S 6 9 30.78 1042 10 16 0.00 0.00
1:53 am 01:53 Clear -2 -18.9 -8 -22.2 75 75 S 5 7 30.77 1042 10 16 0.00 0.00
2:53 am 02:53 Clear -3 -19.4 -8 -22.2 79 79 S 6 9 30.77 1042 10 16 0.00 0.00
3:53 am 03:53 Clear -4 -20 -9 -22.8 79 79 SSW 5 7 30.76 1042 10 16 0.00 0.00
4:53 am 04:53 Clear -5 -20.6 -10 -23.3 79 79 SSW 6 9 30.73 1041 10 16 0.00 0.00
5:53 am 05:53 Clear -5 -20.6 -10 -23.3 79 79 SW 6 9 30.72 1040 10 16 0.00 0.00
6:53 am 06:53 Clear -2 -18.9 -9 -22.8 72 72 SSW 8 13 30.70 1040 10 16 0.00 0.00
7:53 am 07:53 Clear -2 -18.9 -9 -22.8 72 72 SW 6 9 30.69 1039 10 16 0.00 0.00
8:53 am 08:53 Sunny 0 -17.8 -8 -22.2 69 69 SW 8 13 30.67 1039 10 16 0.00 0.00
9:53 am 09:53 Sunny 4 -15.6 -5 -20.6 66 66 SW 8 13 30.66 1038 10 16 0.00 0.00
10:53 am 10:53 Sunny 8 -13.3 -2 -18.9 63 63 SW 12 19 30.61 1037 10 16 0.00 0.00
11:53 am 11:53 Sunny 12 -11.1 0 -17.8 58 58 WSW 13 20 30.57 1035 10 16 0.00 0.00
12:53 pm 12:53 Sunny 14 -10 3 -16.1 61 61 SW 13 20 30.50 1033 10 16 0.00 0.00
1:53 pm 13:53 Sunny 17 -8.3 4 -15.6 56 56 WSW 15 24 30.45 1031 10 16 0.00 0.00
2:53 pm 14:53 Sunny 18 -7.8 6 -14.4 59 59 WSW 15 24 30.44 1031 10 16 0.00 0.00
3:53 pm 15:53 Sunny 19 -7.2 7 -13.9 59 59 SW 9 15 30.41 1030 10 16 0.00 0.00
4:53 pm 16:53 Sunny 20 -6.7 8 -13.3 60 60 SW 9 15 30.38 1029 10 16 0.00 0.00
5:53 pm 17:53 Clear 20 -6.7 10 -12.2 65 65 WSW 10 17 30.36 1028 10 16 0.00 0.00
6:53 pm 18:53 Mostly Cloudy 21 -6.1 11 -11.7 65 65 WSW 13 20 30.34 1027 10 16 0.00 0.00
7:53 pm 19:53 Mostly Cloudy 22 -5.6 13 -10.6 68 68 W 17 28 30.32 1027 10 16 0.00 0.00
8:53 pm 20:53 Mostly Clear 22 -5.6 13 -10.6 68 68 W 13 20 30.31 1027 10 16 0.00 0.00
9:53 pm 21:53 Clear 20 -6.7 12 -11.1 71 71 W 14 22 30.29 1026 10 16 0.00 0.00
10:53 pm 22:53 Clear 21 -6.1 12 -11.1 68 68 WNW 14 22 30.30 1026 10 16 0.00 0.00
11:53 pm 23:53 Clear 22 -5.6 13 -10.6 68 68 NW 14 22 30.29 1026 10 16 0.00 0.00

Powered by AerisWeather